Regional Weather Roundup
Issued by NWS

Home | Current Version | Previous Version | Graphics & Text | Print | Product List | Glossary Off
Versions: 1 2 3 4 5 6 7 8 9 10 11 12 13 14 15 16 17 18 19 20 21 22 23 24 25 26 27 28 29 30 31 32 33 34 35 36 37 38 39 40 41 42 43 44 45 46 47 48 49 50

000
ASUS43 KDMX 260006
RWRIA

WEATHER ROUNDUP FOR IOWA
NATIONAL WEATHER SERVICE DES MOINES IA
700 PM CDT TUE JUL 25 2017

NOTE: "FAIR" INDICATES FEW OR NO CLOUDS BELOW 12,000 FEET WITH NO
SIGNIFICANT WEATHER AND/OR OBSTRUCTIONS TO VISIBILITY.

* - THESE STATIONS ARE NOT NWS STATIONS...THUS NOT UNDER NWS
QUALITY CONTROL.  THEY ALSO DO NOT REPORT WEATHER SUCH
AS PRECIPITATION OR FOG.

IAZ001>003-012>014-020>022-031>034-043>046-260100-
   NORTHWEST IOWA

CITY           SKY/WX    TMP DP  RH WIND       PRES   REMARKS
CARROLL *      CLOUDY    86  75  70 S9        29.96F HX  95
CHEROKEE *     CLOUDY    86  75  69 S10       29.94R HX  96
DENISON *      CLOUDY    86  73  66 S10G16    29.97S HX  93
ORANGE CITY *  CLOUDY    84  73  70 S7        29.93R HX  91
SHELDON *      CLOUDY    84  73  70 S12       29.92R HX  91
SIOUX CITY     CLOUDY    90  70  51 S14       29.90R HX  95
6HR MIN TEMP:  90; 6HR MAX TEMP:  97;

SPENCER        CLOUDY    86  73  65 S9        29.94R HX  93
6HR MIN TEMP:  86; 6HR MAX TEMP:  93;

STORM LAKE *   CLOUDY    84  73  70 S13G22    29.96S HX  91
$$

IAZ055>058-069>071-079>083-090>094-260100-
   SOUTHWEST IOWA

CITY           SKY/WX    TMP DP  RH WIND       PRES   REMARKS
ATLANTIC *     SUNNY     88  75  66 S10G16    29.98R HX  97
AUDUBON *      SUNNY     88  75  66 S8        29.99R HX  97
CLARINDA *     SUNNY     88  77  70 S7        29.99S HX 100
COUNCIL BLFS * SUNNY     88  75  66 SE16      29.94R HX  97
CRESTON *      SUNNY     88  73  62 S10G18    30.03R HX  96
HARLAN  *      CLOUDY    88  75  66 S9        30.00R HX  97
LAMONI         SUNNY     87  75  67 S12       30.01F HX  96
6HR MIN TEMP:  85; 6HR MAX TEMP:  90;

RED OAK *      SUNNY     88  75  66 SE13      29.97R HX  97
SHENANDOAH *   SUNNY     90  77  66 SE9G15    29.96S HX 102
$$

IAZ047>049-059>061-072>074-084-260100-
   CENTRAL IOWA

CITY           SKY/WX    TMP DP  RH WIND       PRES   REMARKS
AMES           CLOUDY    86  75  69 SE10      29.99R HX  95
6HR MIN TEMP:  84; 6HR MAX TEMP:  89;

ANKENY *       SUNNY     90  73  58 SE14      29.99R HX  98
BOONE *        CLOUDY    86  75  70 SE8       29.98S HX  95
CHARITON *     SUNNY     90  72  55 S13       30.02R HX  96
DES MOINES     PTSUNNY   92  71  50 S14       29.98R HX  98
6HR MIN TEMP:  89; 6HR MAX TEMP:  95;

GRINNELL*      SUNNY     85  69  57 SE10      30.04R HX  88
KNOXVILLE *    SUNNY     88  70  55 SE10G16   30.00R HX  92
MARSHALLTOWN   CLOUDY    84  71  65 SE12      30.01R HX  89
6HR MIN TEMP:  83; 6HR MAX TEMP:  87;

NEWTON *       SUNNY     86  72  62 SE9       30.01R HX  92
PELLA *        SUNNY     89  68  49 SE10      30.02R HX  93
PERRY *          N/A     88  76  66 S6        29.99R HX  98
$$

IAZ004>006-015-016-023>025-035-036-260100-
   NORTH CENTRAL IOWA

CITY           SKY/WX    TMP DP  RH WIND       PRES   REMARKS
ALGONA *       CLOUDY    84  73  70 S9        29.96R HX  91
CLARION *      CLOUDY    84  75  74 S12       29.97S HX  92
ESTHERVILLE    CLOUDY    81  73  76 S7        29.94R HX  86
6HR MIN TEMP:  81; 6HR MAX TEMP:  89;

FORT DODGE *   CLOUDY    88  72  58 S12       29.97F HX  94
MASON CITY     CLOUDY    80  72  76 S12       30.00R HX  84
6HR MIN TEMP:  80; 6HR MAX TEMP:  85;

FOREST CITY *    N/A     81  72  74 S9        29.98S HX  84
WEBSTER CITY * CLOUDY    86  73  66 SE10G18   29.96S HX  93
IOWA FALLS *     N/A     83  72  67 SE12      30.01S HX  88
$$

IAZ007>011-017>019-026>030-037>042-050>054-066-260100-
   NORTHEAST IOWA

CITY           SKY/WX    TMP DP  RH WIND       PRES   REMARKS
CHARLES CITY * CLOUDY    79  72  78 S13       30.01S HX  82
DECORAH *      SUNNY     77  68  73 S10       30.02S
DUBUQUE        SUNNY     77  67  71 S10G22    30.08F
6HR MIN TEMP:  74; 6HR MAX TEMP:  78;

MONTICELLO *   SUNNY     79  70  73 S9G15     30.06S HX  81
OELWEIN *      SUNNY     79  70  73 S12G18    30.03F HX  81
$$

IAZ064-065-067-068-078-260100-
   EAST CENTRAL IOWA

CITY           SKY/WX    TMP DP  RH WIND       PRES   REMARKS
DAVENPORT      SUNNY     79  67  66 S9        30.09F HX  81
6HR MIN TEMP:  78; 6HR MAX TEMP:  81;

IOWA CITY      SUNNY     82  69  64 SE8       30.06F HX  85
6HR MIN TEMP:  81; 6HR MAX TEMP:  84;

MT. PLEASANT * SUNNY     83  67  60 SE10      30.06F HX  85
MUSCATINE *    SUNNY     82  68  61 SE9G16    30.06F HX  85
QUAD CITIES    SUNNY     81  68  64 SE7       30.07F HX  84
6HR MIN TEMP:  79; 6HR MAX TEMP:  82;

$$

IAZ062-063-075>077-085>089-095>099-260100-
   SOUTHEAST IOWA

CITY           SKY/WX    TMP DP  RH WIND       PRES   REMARKS
BURLINGTON     SUNNY     83  71  67 SE6       30.06F HX  87
6HR MIN TEMP:  82; 6HR MAX TEMP:  85;

FAIRFIELD *    SUNNY     84  68  58 SE14      30.04S HX  87
FORT MADISON * SUNNY     82  70  65 SE5       30.07F HX  86
KEOKUK *       SUNNY     86  68  54 SE10      30.05F HX  89
OSKALOOSA *      N/A     86  68  53 SE8       30.03R HX  89
CENTERVILLE *    N/A     86  70  58 SE5       30.05S HX  90
OTTUMWA        SUNNY     88  67  49 SE12      30.02F HX  91
6HR MIN TEMP:  86; 6HR MAX TEMP:  92;

WASHINGTON *   SUNNY     82  70  65 SE10      30.06S HX  86
$$

ABBREVIATIONS USED IN REMARKS
   TC - TEMPERATURES IN CELSIUS
  WCI - WIND CHILL INDEX
   HX - HEAT INDEX
  VSB - VISIBILITY
$$




USA.gov is the U.S. government's official web portal to all federal, state and local government web resources and services.